Location: Cruquius
(52.3348°N, 4.6319°E)
Time: 20:48:49
(UTC+00:00)

Cosmos 2218 Rocket - Pass Details

Date: 12 May 2021
Orbit: 957 x 1005 km, 82.9° (Epoch: 23 June)

Event Time Altitude Azimuth Distance (km) Brightness Sun altitude
Rises 22:33:01 0° 348° (NNW) 3,688 8.8 -17.9°
Reaches altitude 10° 22:35:32 10° 348° (NNW) 2,743 7.6 -18.0°
Maximum altitude 22:41:49 79° 263° (W) 1,012 4.0 -18.2°
Enters shadow 22:45:17 29° 181° (S) 1,734 4.7 -18.4°
